Location: Hobi?a Gr?di?te
(45.4833°N, 22.7833°E)
Time: 05:31:36
(UTC+00:00)

Cosmos 2360 Rocket - Pass Details

Date: 28 January 2023
Orbit: 832 x 846 km, 71.0° (Epoch: 29 March)

Event Time Altitude Azimuth Distance (km) Brightness Sun altitude
Rises 17:53:46 0° 186° (S) 3,368 5.4 -25.3°
Reaches altitude 10° 17:56:16 10° 181° (S) 2,440 4.6 -25.8°
Enters shadow 17:58:32 24° 169° (S) 1,664 3.6 -26.2°
